Preview of NWS' New Version of Forecast
This preview is not operational and should not be used for support decisions.

Regional Weather Roundup (RWR)

Issued by National Weather Service (NWS)

                            
000
ASUS46 KSEW 190210
RWRWA 

WASHINGTON REGIONAL WEATHER ROUNDUP
NATIONAL WEATHER SERVICE SEATTLE WA
700 PM PDT WED SEP 18 2019

NOTE:"FAIR" INDICATES FEW OR NO CLOUDS BELOW 12,000 FEET WITH NO 
SIGNIFICANT WEATHER AND/OR OBSTRUCTIONS TO VISIBILITY.

WAZ507-509-555>559-190300-
SEATTLE, TACOMA, EVERETT, AND VICINITY
  
CITY           SKY/WX    TMP DP  RH WIND       PRES   REMARKS
EVERETT        CLEAR     60  51  72 NW6       29.95R                  
BOEING FIELD   PTCLDY    63  51  65 NW7       29.94R                  
RENTON         PTCLDY    64  53  67 N9        29.93R                  
SEATAC AIRPORT PTCLDY    63  51  65 NW8       29.94R                  
JBLM-MCCHORD   PTCLDY    62  55  78 N5        29.94R                  
PUYALLUP       MOCLDY    63  57  82 CALM      29.94R                  
BREMERTON      CLEAR     61  52  72 N6        29.95R                  
JBLM-FT LEWIS  PTCLDY    64  58  83 N7        29.93R                  
TACOMA NARROWS PTCLDY    60  51  72 N9        29.94S                  
$$
 
WAZ001-503-506-510-514-515-190300-
NORTH INTERIOR
  
CITY           SKY/WX    TMP DP  RH WIND       PRES   REMARKS
BELLINGHAM     CLEAR     60  53  77 CALM      29.94R                  
FRIDAY HARBOR  CLEAR     59  52  77 W5        29.95R                  
EASTSOUND      CLEAR     59  54  82 CALM      29.93S                  
PORT ANGELES   CLEAR     57  52  83 W5        29.96R                  
EDIZ HOOK      FAIR      56  52  86 W6        29.95S                  
PORT TOWNSEND  FAIR      61  52  72 CALM      29.94S                  
NAS WHIDBEY    PTCLDY    58  51  78 CALM      29.98S                  
ARLINGTON      PTCLDY    61  50  67 NW10      29.94R                  
BURLINGTON     MOCLDY    61  52  72 W7        29.94S                  
$$
 
WAZ020-022-039-040-504-511-512-190300-
SOUTHWEST INTERIOR
  
CITY           SKY/WX    TMP DP  RH WIND       PRES   REMARKS
SHELTON        MOCLDY    62  53  72 SW3       29.92R                  
OLYMPIA        PTCLDY    64  52  64 N6        29.94R                  
CHEHALIS       CLOUDY    61  57  88 CALM      29.93S                  
KELSO          MOCLDY    63  56  78 CALM      29.93R                  
VANCOUVER      MOCLDY    63  55  75 CALM      29.91R                  
SCAPPOOSE, OR  PTCLDY    62  54  74 CALM      29.91R                  
PORTLAND, OR   MOCLDY    64  55  72 W3        29.92R                  
$$
 
WAZ021-516-517-190300-
WASHINGTON COAST
  
CITY           SKY/WX    TMP DP  RH WIND       PRES   REMARKS
FORKS          CLEAR     62  54  74 N7        29.94R                  
HOQUIAM        CLEAR     62  56  80 W7        29.95R                  
ASTORIA, OR    PTCLDY    61  54  77 NW9       29.94R                  
$$
 
WAZ019-023-024-040-567>569-190300-
CASCADE MOUNTAINS AND COLUMBIA GORGE
  
CITY           SKY/WX    TMP DP  RH WIND       PRES   REMARKS
STAMPEDE PASS  NOT AVBL                                               
TROUTDALE, OR  CLOUDY    65  53  65 VRB3      29.91R                  
HOOD RIVER, OR MOCLDY    59  50  72 NW5       29.91R                  
THE DALLES, OR MOCLDY    64  49  57 W9        29.88R                  
$$

WAZ026-027-041>044-520-521-190300-
EAST SLOPES
  
CITY           SKY/WX    TMP DP  RH WIND       PRES   REMARKS
OMAK           PTCLDY    57  49  74 NW8       29.92R                  
WENATCHEE      LGT RAIN  61  50  67 W7        29.90R                  
ELLENSBURG     MOCLDY    60  48  64 NW3       29.91R                  
YAKIMA         CLOUDY    63  47  55 N7        29.89R                  
SUNNYSIDE ARPT MOCLDY    60  56  85 SW3       29.88S                  
YAKIMA TC      FAIR      61  46  58 E7        29.87S                  
$$

WAZ028-034-035-190300-
COLUMBIA BASIN
  
CITY           SKY/WX    TMP DP  RH WIND       PRES   REMARKS
EPHRATA        PTCLDY    61  51  70 NW10      29.89R                  
MOSES LAKE     MOCLDY    64  47  53 N10       29.89R                  
PASCO          PTCLDY    66  53  63 N7        29.85R                  
RICHLAND ARPT  PTCLDY    65  49  54 W7        29.86                   
HERMISTON, OR  PTCLDY    68  45  43 W3        29.85R                  
$$

WAZ036>038-190300-
NORTHEAST WASHINGTON
  
CITY           SKY/WX    TMP DP  RH WIND       PRES   REMARKS
SPOKANE GEIGER MOCLDY    54  47  77 N6        29.91R                  
SPOKANE FELTS  CLOUDY    57  48  72 E6        29.92R                  
FAIRCHILD AFB  CLEAR     52  52 100 NE6       29.92R                  
COEURDALENE,ID LGT RAIN  55  51  86 N3        29.93S                  
DEER PARK      CLOUDY    54  51  90 NE5       29.92S                  
$$

WAZ029>033-190300-
SOUTHEAST WASHINGTON
  
CITY           SKY/WX    TMP DP  RH WIND       PRES   REMARKS
PULLMAN        CLOUDY    56  46  69 SE6       29.92R                  
LEWISTON, ID   CLOUDY    62  45  53 S5        29.89R                  
WALLA WALLA    MOCLDY    67  47  48 E5        29.86R                  
PENDLETON, OR  MOCLDY    61  43  51 NW6       29.87R                  
$$